Hlavní strana
METAR-TAF:

METAR-TAF

Letiště :

Delaware County Airport (Johnson Field)

Muncie, Indiana, Spojené státy americké

zeměpisná šířka: 40-14-03N, zeměpisná délka: 085-23-37W, výška: 285 m

Aktuální stav počasí

Zpráva byla vytvořena před 53 minutami, v 06:53 UTC
Jihojihovýchodní vítr 6 kt
Teplota 8°C
Vlhkost vzduchu 87%
Tlak 1018 hPa
Viditelnost: 16.1 km
Zataženo ve výšce 1700 ft
slabý déšť

METAR: KMIE 250653Z AUTO 15006KT 10SM -RA OVC017 08/06 A3005 RMK AO2 RAB51 SLP174 P0000 T00830056

Čas: 03:46 (07:46 UTC)


TAF: chybějící

Stav a předpovědi počasí z více než 4 000 letišť (zprávy METAR a TAF).

Červené a žluté tečky na mapě představují dostupné meteorologické stanice.

Když kurzor umístíte na tečku, zobrazí se název stanice.

Pak kliknutím zobrazíte stav a předpověď počasí.

Chcete-li změnit mapu, kliknutím na zelené tlačítko se znaménkem +mapu přiblížíte, kliknutím na zelené tlačítko se znaménkem – mapu oddálíte a kliknutím na zelené šipky přejdete na sousední mapy.


METAR-TAF: